TimeCST,TemperatureF,Dew PointF,Humidity,Sea Level PressureIn,VisibilityMPH,Wind Direction,Wind SpeedMPH,Gust SpeedMPH,PrecipitationIn,Events,Conditions,WindDirDegrees,DateUTC
12:15 AM,30.2,24.8,80,29.77,9.0,WSW,6.9,-,N/A,,Overcast,250,2012-12-18 06:15:00
12:35 AM,30.2,24.8,80,29.77,8.0,WSW,4.6,-,N/A,,Overcast,240,2012-12-18 06:35:00
12:55 AM,30.2,24.8,80,29.77,8.0,WSW,6.9,-,N/A,,Overcast,240,2012-12-18 06:55:00
1:15 AM,30.2,24.8,80,29.77,5.0,SW,8.1,-,N/A,,Overcast,230,2012-12-18 07:15:00
1:35 AM,30.2,24.8,80,29.77,5.0,SW,4.6,-,N/A,,Mostly Cloudy,230,2012-12-18 07:35:00
1:55 AM,28.4,24.8,86,29.76,5.0,SSW,3.5,-,N/A,,Partly Cloudy,200,2012-12-18 07:55:00
2:15 AM,28.4,23.0,80,29.76,5.0,Calm,Calm,-,N/A,,Partly Cloudy,0,2012-12-18 08:15:00
2:35 AM,26.6,23.0,86,29.76,4.0,Calm,Calm,-,N/A,,Mostly Cloudy,0,2012-12-18 08:35:00
2:55 AM,28.4,24.8,86,29.76,4.0,Calm,Calm,-,N/A,,Scattered Clouds,0,2012-12-18 08:55:00
3:15 AM,30.2,24.8,80,29.76,5.0,Calm,Calm,-,N/A,,Partly Cloudy,0,2012-12-18 09:15:00
3:35 AM,30.2,26.6,86,29.75,4.0,ESE,3.5,-,N/A,,Mostly Cloudy,120,2012-12-18 09:35:00
3:55 AM,30.2,26.6,86,29.75,4.0,SE,4.6,-,N/A,,Mostly Cloudy,140,2012-12-18 09:55:00
4:15 AM,30.2,26.6,86,29.74,4.0,SSE,4.6,-,N/A,,Mostly Cloudy,150,2012-12-18 10:15:00
4:35 AM,30.2,26.6,86,29.74,4.0,SE,4.6,-,N/A,,Partly Cloudy,140,2012-12-18 10:35:00
4:55 AM,30.2,26.6,86,29.73,4.0,SE,6.9,-,N/A,,Clear,140,2012-12-18 10:55:00
5:15 AM,30.2,26.6,86,29.73,4.0,SE,8.1,-,N/A,,Scattered Clouds,140,2012-12-18 11:15:00
5:35 AM,30.2,26.6,86,29.73,3.0,SSE,10.4,-,N/A,,Mostly Cloudy,150,2012-12-18 11:35:00
5:55 AM,30.2,26.6,86,29.73,3.0,SE,8.1,-,N/A,,Mostly Cloudy,140,2012-12-18 11:55:00
6:15 AM,30.2,26.6,86,29.72,3.0,SE,9.2,-,N/A,,Clear,140,2012-12-18 12:15:00
6:35 AM,32.0,28.4,87,29.71,3.0,SE,11.5,-,N/A,,Clear,140,2012-12-18 12:35:00
6:55 AM,32.0,28.4,87,29.71,3.0,SE,13.8,-,N/A,,Clear,140,2012-12-18 12:55:00
7:15 AM,32.0,28.4,87,29.70,3.0,SE,11.5,-,N/A,,Scattered Clouds,130,2012-12-18 13:15:00
7:35 AM,33.8,28.4,81,29.68,2.5,ESE,15.0,-,N/A,,Scattered Clouds,120,2012-12-18 13:35:00
7:55 AM,33.8,28.4,81,29.68,2.5,SE,16.1,-,N/A,,Scattered Clouds,140,2012-12-18 13:55:00
8:15 AM,33.8,28.4,81,29.70,2.5,SE,13.8,-,N/A,,Mostly Cloudy,140,2012-12-18 14:15:00
8:35 AM,33.8,28.4,81,29.67,2.5,SE,17.3,23.0,N/A,,Mostly Cloudy,140,2012-12-18 14:35:00
8:55 AM,33.8,28.4,81,29.65,3.0,SE,18.4,-,N/A,,Mostly Cloudy,130,2012-12-18 14:55:00
9:15 AM,33.8,30.2,87,29.66,3.0,SE,19.6,-,N/A,,Mostly Cloudy,140,2012-12-18 15:15:00
9:35 AM,33.8,30.2,87,29.64,3.0,SE,18.4,-,N/A,,Mostly Cloudy,130,2012-12-18 15:35:00
9:55 AM,35.6,30.2,81,29.63,3.0,SE,18.4,-,N/A,,Mostly Cloudy,130,2012-12-18 15:55:00
10:15 AM,35.6,30.2,81,29.61,3.0,ESE,20.7,-,N/A,,Mostly Cloudy,120,2012-12-18 16:15:00
10:35 AM,35.6,30.2,81,29.59,3.0,SE,23.0,27.6,N/A,,Overcast,140,2012-12-18 16:35:00
10:55 AM,35.6,30.2,81,29.60,3.0,SSE,20.7,24.2,N/A,,Overcast,150,2012-12-18 16:55:00
11:15 AM,37.4,32.0,81,29.57,3.0,SSE,18.4,-,N/A,,Mostly Cloudy,150,2012-12-18 17:15:00
11:35 AM,37.4,32.0,81,29.59,4.0,SSE,13.8,-,N/A,,Mostly Cloudy,160,2012-12-18 17:35:00
11:55 AM,37.4,33.8,87,29.58,5.0,South,12.7,20.7,N/A,,Overcast,170,2012-12-18 17:55:00
12:15 PM,39.2,33.8,81,29.57,5.0,South,11.5,-,N/A,,Overcast,170,2012-12-18 18:15:00
12:35 PM,39.2,33.8,81,29.56,6.0,South,13.8,-,N/A,,Mostly Cloudy,180,2012-12-18 18:35:00
12:55 PM,39.2,33.8,81,29.56,7.0,South,9.2,-,N/A,,Overcast,180,2012-12-18 18:55:00
1:15 PM,39.2,33.8,81,29.55,7.0,SSW,6.9,-,N/A,,Overcast,200,2012-12-18 19:15:00
1:35 PM,41.0,33.8,76,29.56,8.0,SW,9.2,-,N/A,,Overcast,220,2012-12-18 19:35:00
1:55 PM,41.0,33.8,76,29.56,8.0,SW,10.4,-,N/A,,Overcast,230,2012-12-18 19:55:00
2:15 PM,41.0,33.8,76,29.56,8.0,WSW,10.4,-,N/A,,Overcast,240,2012-12-18 20:15:00
2:35 PM,41.0,33.8,76,29.57,8.0,WSW,6.9,-,N/A,,Mostly Cloudy,250,2012-12-18 20:35:00
2:55 PM,41.0,33.8,76,29.58,7.0,West,5.8,-,N/A,,Mostly Cloudy,270,2012-12-18 20:55:00
3:15 PM,41.0,33.8,76,29.59,7.0,West,6.9,-,N/A,,Mostly Cloudy,280,2012-12-18 21:15:00
3:35 PM,39.2,33.8,81,29.59,6.0,WNW,4.6,-,N/A,,Mostly Cloudy,290,2012-12-18 21:35:00
3:55 PM,39.2,33.8,81,29.60,6.0,WNW,8.1,-,N/A,,Mostly Cloudy,290,2012-12-18 21:55:00
4:15 PM,39.2,33.8,81,29.61,7.0,WNW,10.4,-,N/A,,Scattered Clouds,290,2012-12-18 22:15:00
4:35 PM,39.2,33.8,81,29.62,6.0,WNW,9.2,-,N/A,,Scattered Clouds,300,2012-12-18 22:35:00
4:55 PM,39.2,33.8,81,29.64,7.0,NW,12.7,-,N/A,,Mostly Cloudy,310,2012-12-18 22:55:00
5:15 PM,39.2,33.8,81,29.65,7.0,WNW,15.0,-,N/A,,Mostly Cloudy,300,2012-12-18 23:15:00
5:35 PM,37.4,33.8,87,29.67,5.0,WNW,17.3,23.0,N/A,,Overcast,300,2012-12-18 23:35:00
5:55 PM,37.4,33.8,87,29.69,5.0,WNW,12.7,-,N/A,,Mostly Cloudy,290,2012-12-18 23:55:00
6:15 PM,37.4,33.8,87,29.69,4.0,WNW,12.7,-,N/A,,Partly Cloudy,300,2012-12-19 00:15:00
6:35 PM,37.4,32.0,81,29.71,5.0,WNW,16.1,-,N/A,,Scattered Clouds,300,2012-12-19 00:35:00
6:55 PM,35.6,32.0,87,29.73,4.0,NW,16.1,20.7,N/A,,Mostly Cloudy,310,2012-12-19 00:55:00
7:15 PM,35.6,30.2,81,29.75,4.0,NW,15.0,-,N/A,,Mostly Cloudy,310,2012-12-19 01:15:00
7:35 PM,35.6,30.2,81,29.77,5.0,NW,15.0,-,N/A,,Overcast,310,2012-12-19 01:35:00
7:55 PM,35.6,30.2,81,29.78,5.0,NNW,15.0,-,N/A,,Overcast,330,2012-12-19 01:55:00
8:15 PM,35.6,30.2,81,29.79,5.0,NNW,11.5,-,N/A,,Overcast,330,2012-12-19 02:15:00
8:35 PM,33.8,30.2,87,29.80,5.0,NNW,12.7,-,N/A,,Overcast,330,2012-12-19 02:35:00
8:55 PM,33.8,28.4,81,29.82,7.0,NW,15.0,-,N/A,,Overcast,320,2012-12-19 02:55:00
9:15 PM,33.8,28.4,81,29.83,6.0,NW,10.4,-,N/A,,Overcast,320,2012-12-19 03:15:00
9:35 PM,33.8,28.4,81,29.85,5.0,NW,10.4,-,N/A,,Overcast,310,2012-12-19 03:35:00
9:55 PM,33.8,28.4,81,29.85,6.0,NW,12.7,-,N/A,,Overcast,310,2012-12-19 03:55:00
10:15 PM,33.8,28.4,81,29.87,7.0,NW,10.4,-,N/A,,Overcast,310,2012-12-19 04:15:00
10:35 PM,33.8,28.4,81,29.88,7.0,NNW,15.0,-,N/A,,Overcast,330,2012-12-19 04:35:00
10:55 PM,33.8,28.4,81,29.89,7.0,NW,9.2,-,N/A,,Overcast,320,2012-12-19 04:55:00
11:15 PM,33.8,28.4,81,29.90,8.0,NW,11.5,16.1,N/A,,Overcast,310,2012-12-19 05:15:00
11:35 PM,33.8,28.4,81,29.90,8.0,NW,8.1,-,N/A,,Overcast,320,2012-12-19 05:35:00
11:55 PM,33.8,28.4,81,29.91,7.0,NNW,5.8,-,N/A,,Overcast,330,2012-12-19 05:55:00